Location: Fernhill
(41.0167°S, 175.6333°E)
Time: 09:13:18
(UTC+00:00)

Resurs 01 Rocket - Pass Details

Date: 08 November 2025
Orbit: 626 x 637 km, 97.7° (Epoch: 11 December)

Event Time Altitude Azimuth Distance (km) Brightness Sun altitude
Rises 08:32:41 0° 171° (S) 2,958 5.5 -14.8°
Reaches altitude 10° 08:34:55 10° 174° (S) 2,043 4.7 -15.1°
Maximum altitude 08:39:19 64° 254° (WSW) 713 2.1 -15.8°
Drops below altitude 10° 08:43:40 10° 335° (NNW) 2,020 4.0 -16.4°
Sets 08:45:52 0° 338° (NNW) 2,922 4.8 -16.7°
